(298671) = 2004 CA91 = 2006 QW58

Discovered at Kitt Peak on 2004-02-12 by Spacewatch.

Orbit

Orbit type: Main Belt

Note: WebGL enabled browser required.

epoch2023-02-25.0
epoch JD2460000.5
perihelion date2020-11-24.25095
perihelion JD2459177.75095
argument of perihelion (°)175.33037
ascending node (°)197.84488
inclination (°)4.28576
eccentricity0.0869829
perihelion distance (AU)2.5272879
Tisserand w.r.t. Jupiter3.3
ΔV w.r.t. Earth (km/sec)10.0
semimajor axis (AU)2.7680620
mean anomaly (°)176.07898
mean daily motion (°/day)0.21401300
aphelion distance (AU)3.009
period (years)4.61
P-vector [x]0.97360766
P-vector [y]0.20690087
P-vector [z]0.09633354
Q-vector [x]-0.22707638
Q-vector [y]0.92052515
Q-vector [z]0.31791471
absolute magnitude16.68
phase slope0.15
uncertainty0
referenceMPO 745323
observations used314
oppositions18
arc length (days)9359
first opposition used1997
last opposition used2023
residual rms (arc-secs)0.75
perturbers coarse indicatorM-v
perturbers precise indicator003Ek
first observation date used1997-09-28.0
last observation date used2023-05-14.0
computer nameMPCLINUX
JD of orbit computation2456789.211037
perihelion JD uncertainty (days)1.0273E-04
argument of perihelion uncertainty (°)4.9227E-05
ascending node uncertainty (°)4.4987E-05
inclination uncertainty (°)5.1283E-06
eccentricity uncertainty 4.5904E-08
perihelion distance uncertainty (AU)1.2878E-07
Minimum Orbit Intersection Distances (in AU)
for orbit epoch: 2460000.5, reference: E2023-JF5
Mercury2.17392
Venus1.80344
Earth1.5259
Mars1.09658
Jupiter2.42358
Saturn6.31585
Uranus15.4578
Neptune27.3148

Observations

318 total observations over interval: 1997 09 28.27106 – 2023 05 14.299480
These data are available for download (format description).

Date (UT) J2000 RA J2000 Dec Magn Location Ref
1997 09 28.27106 23 47 03.53 +00 56 25.0 19.9 V 691 – Steward Observatory, Kitt Peak-Spacewatch MPS 178452
1997 09 28.29209 23 47 02.56 +00 56 16.0 20.1 V 691 – Steward Observatory, Kitt Peak-Spacewatch MPS 178452
1997 09 28.31318 23 47 01.60 +00 56 07.4 20.2 V 691 – Steward Observatory, Kitt Peak-Spacewatch MPS 178452
2002 11 04.22557 03 11 37.32 +14 24 47.4 20.0   644 – Palomar Mountain/NEAT MPS 178452
2002 11 04.29930 03 11 33.40 +14 24 24.1 20.1   644 – Palomar Mountain/NEAT MPS 178452
2002 11 04.36207 03 11 30.05 +14 24 04.4 20.3   644 – Palomar Mountain/NEAT MPS 178452
2004 02 12.42838 10 04 46.98 +06 32 45.3 21.9 V 691 – Steward Observatory, Kitt Peak-Spacewatch MPS 100205
2004 02 12.45712 10 04 45.51 +06 32 54.1 21.6 V 691 – Steward Observatory, Kitt Peak-Spacewatch MPS 100205
2004 02 12.48469 10 04 44.11 +06 33 02.7 21.1 V 691 – Steward Observatory, Kitt Peak-Spacewatch MPS 100205
2004 02 18.32497 09 59 52.20 +07 04 10.1 21.0 V 691 – Steward Observatory, Kitt Peak-Spacewatch MPS 100205
2004 02 18.35260 09 59 50.75 +07 04 18.6 22.0 V 691 – Steward Observatory, Kitt Peak-Spacewatch MPS 100205
2004 02 18.38348 09 59 49.17 +07 04 29.3 21.1 V 691 – Steward Observatory, Kitt Peak-Spacewatch MPS 100205
2004 03 20.15625 09 38 30.18 +09 43 44.6 22.0 V 691 – Steward Observatory, Kitt Peak-Spacewatch MPS 178452
2004 03 20.18487 09 38 29.38 +09 43 51.8 21.4 V 691 – Steward Observatory, Kitt Peak-Spacewatch MPS 178452
2004 03 20.21329 09 38 28.60 +09 43 59.2 21.7 V 691 – Steward Observatory, Kitt Peak-Spacewatch MPS 178452
2005 05 11.33356 15 20 21.45 -14 42 10.4 19.9 R G96 – Mt. Lemmon Survey MPS 178452
2005 05 11.34035 15 20 21.11 -14 42 08.2 20.0 R G96 – Mt. Lemmon Survey MPS 178452
2005 05 11.34706 15 20 20.74 -14 42 06.6 19.5 R G96 – Mt. Lemmon Survey MPS 178452
2005 05 11.35380 15 20 20.41 -14 42 04.9 18.4 R G96 – Mt. Lemmon Survey MPS 178452
2006 08 19.24695 22 15 18.42 -05 17 36.0 19.5 R 699 – Lowell Observatory-LONEOS MPS 177210
2006 08 19.26514 22 15 17.48 -05 17 41.7   699 – Lowell Observatory-LONEOS MPS 177210
2006 08 19.28339 22 15 16.53 -05 17 46.3   699 – Lowell Observatory-LONEOS MPS 177210
2006 08 19.32105 22 15 14.81 -05 18 00.1   699 – Lowell Observatory-LONEOS MPS 177210
2006 08 28.26679 22 08 12.48 -06 08 54.1 19.0 V 703 – Catalina Sky Survey MPS 177210
2006 08 28.27316 22 08 12.26 -06 08 56.1 19.6 V 703 – Catalina Sky Survey MPS 177210
2006 08 28.27960 22 08 11.94 -06 08 58.2 19.7 V 703 – Catalina Sky Survey MPS 177210
2006 08 28.28598 22 08 11.61 -06 09 02.0 19.7 V 703 – Catalina Sky Survey MPS 177210
2006 09 27.17024 21 50 10.60 -08 52 24.7 20.4 V G96 – Mt. Lemmon Survey MPS 181026
2006 09 27.17712 21 50 10.46 -08 52 26.1 20.3 V G96 – Mt. Lemmon Survey MPS 181026
2006 09 27.18402 21 50 10.35 -08 52 27.8 20.4 V G96 – Mt. Lemmon Survey MPS 181026
2006 09 27.19091 21 50 10.21 -08 52 29.4 20.2 V G96 – Mt. Lemmon Survey MPS 181026
2007 12 31.23156 06 04 24.81 +16 55 41.2 19.6 V G96 – Mt. Lemmon Survey MPS 232609
2007 12 31.23580 06 04 24.52 +16 55 41.3 19.8 V G96 – Mt. Lemmon Survey MPS 232609
2007 12 31.23999 06 04 24.34 +16 55 40.9 19.6 V G96 – Mt. Lemmon Survey MPS 232609
2007 12 31.24415 06 04 24.06 +16 55 40.8 19.3 V G96 – Mt. Lemmon Survey MPS 232609
2009 02 20.35919 12 25 59.47 -05 11 03.5 21.5 V 691 – Steward Observatory, Kitt Peak-Spacewatch MPS 277565
2009 02 20.37730 12 25 58.98 -05 11 00.2 21.2 V 691 – Steward Observatory, Kitt Peak-Spacewatch MPS 277565
2009 02 20.39566 12 25 58.47 -05 10 55.8 20.9 V 691 – Steward Observatory, Kitt Peak-Spacewatch MPS 277565
2009 03 29.30137 12 00 35.20 -01 49 43.2 20.7 V G96 – Mt. Lemmon Survey MPS 282525
2009 03 29.30944 12 00 34.77 -01 49 39.9 20.7 V G96 – Mt. Lemmon Survey MPS 282525
2009 03 29.31765 12 00 34.41 -01 49 36.9 20.4 V G96 – Mt. Lemmon Survey MPS 282525
2009 03 29.32579 12 00 34.05 -01 49 33.4 20.4 V G96 – Mt. Lemmon Survey MPS 282525
2010 06 08.413638 17 55 57.379 -17 20 04.84 20.43 r F51 – Pan-STARRS 1, Haleakala MPS 337313
2010 06 08.425552 17 55 56.747 -17 20 04.01 20.69 r F51 – Pan-STARRS 1, Haleakala MPS 337313
2011 09 06.59226 01 44 22.414 +11 31 08.91 21.0 g F51 – Pan-STARRS 1, Haleakala MPS 391087
2011 09 06.60405 01 44 22.283 +11 31 06.81 21.0 g F51 – Pan-STARRS 1, Haleakala MPS 391087
2011 09 23.46539 01 38 20.141 +10 27 00.05 21.0 w F51 – Pan-STARRS 1, Haleakala MPS 392618
2011 09 23.48078 01 38 19.592 +10 26 55.46 21.0 w F51 – Pan-STARRS 1, Haleakala MPS 392618
2011 09 23.49621 01 38 19.058 +10 26 50.55 20.8 w F51 – Pan-STARRS 1, Haleakala MPS 392618
2011 09 28.38010 01 35 22.74 +10 00 21.3 19.9 V G96 – Mt. Lemmon Survey MPS 392618
2011 09 28.38696 01 35 22.41 +10 00 18.6 19.6 V G96 – Mt. Lemmon Survey MPS 392618
2011 09 28.39389 01 35 22.16 +10 00 16.4 19.7 V G96 – Mt. Lemmon Survey MPS 392618
2011 09 28.40072 01 35 21.87 +10 00 14.3 19.9 V G96 – Mt. Lemmon Survey MPS 392618
2011 09 29.25836 01 34 48.50 +09 55 17.1 20.4 V 691 – Steward Observatory, Kitt Peak-Spacewatch MPS 392618
2011 09 29.27909 01 34 47.65 +09 55 10.1 20.7 V 691 – Steward Observatory, Kitt Peak-Spacewatch MPS 392618
2011 09 29.29687 01 34 46.88 +09 55 03.8 20.2 V 691 – Steward Observatory, Kitt Peak-Spacewatch MPS 392618
2011 10 18.27006 01 20 26.26 +07 51 49.1 19.2 V G96 – Mt. Lemmon Survey MPS 396190
2011 10 18.27816 01 20 25.87 +07 51 45.7 19.3 V G96 – Mt. Lemmon Survey MPS 396190
2011 10 18.28613 01 20 25.47 +07 51 42.6 19.3 V G96 – Mt. Lemmon Survey MPS 396190
2011 10 18.29426 01 20 25.08 +07 51 39.2 19.4 V G96 – Mt. Lemmon Survey MPS 396190
2011 10 21.32605 01 18 02.49 +07 31 19.5 20.0   704 – Lincoln Laboratory ETS, New Mexico MPS 398088
2011 10 21.33781 01 18 01.87 +07 31 15.3 19.7   704 – Lincoln Laboratory ETS, New Mexico MPS 398088
2011 10 21.34957 01 18 01.41 +07 31 09.7 19.8   704 – Lincoln Laboratory ETS, New Mexico MPS 398088
2011 10 21.36132 01 18 00.75 +07 31 05.7 19.6   704 – Lincoln Laboratory ETS, New Mexico MPS 398088
2011 10 25.27346 01 15 02.923 +07 05 29.74 19.7 r F51 – Pan-STARRS 1, Haleakala MPS 398088
2011 10 25.28563 01 15 02.364 +07 05 24.93 19.9 r F51 – Pan-STARRS 1, Haleakala MPS 398088
2013 01 10.52217 09 06 06.533 +10 22 06.14 20.5 w F51 – Pan-STARRS 1, Haleakala MPS 450831
2013 01 10.54983 09 06 05.312 +10 22 10.25 20.7 w F51 – Pan-STARRS 1, Haleakala MPS 450831
2013 01 10.56372 09 06 04.696 +10 22 12.28 20.8 w F51 – Pan-STARRS 1, Haleakala MPS 450831
2013 01 21.52353 08 57 26.968 +10 56 03.34 20.1 i F51 – Pan-STARRS 1, Haleakala MPS 453141
2013 01 21.53575 08 57 26.323 +10 56 05.91 20.0 i F51 – Pan-STARRS 1, Haleakala MPS 453141
2013 02 01.16927 08 48 06.02 +11 38 24.3 20.4 R 926 – Tenagra II Observatory, Nogales MPS 453616
2013 02 01.18809 08 48 05.01 +11 38 29.0 20.4 R 926 – Tenagra II Observatory, Nogales MPS 453616
2013 02 01.20656 08 48 04.02 +11 38 34.3 20.6 R 926 – Tenagra II Observatory, Nogales MPS 453616
2013 02 02.31374 08 47 04.99 +11 43 19.3 20.6 V G96 – Mt. Lemmon Survey MPS 456139
2013 02 02.31996 08 47 04.66 +11 43 20.9 20.1 V G96 – Mt. Lemmon Survey MPS 456139
2013 02 02.32617 08 47 04.30 +11 43 22.2 20.4 V G96 – Mt. Lemmon Survey MPS 456139
2013 02 02.33243 08 47 03.98 +11 43 23.9 20.6 V G96 – Mt. Lemmon Survey MPS 456139
2013 02 03.33669 08 46 10.985 +11 47 44.59 20.3 w F51 – Pan-STARRS 1, Haleakala MPS 456139
2013 02 03.35134 08 46 10.188 +11 47 48.45 20.6 w F51 – Pan-STARRS 1, Haleakala MPS 456139
2013 02 03.36598 08 46 09.393 +11 47 52.29 20.9 w F51 – Pan-STARRS 1, Haleakala MPS 456139
2013 02 03.38069 08 46 08.591 +11 47 56.12 20.6 w F51 – Pan-STARRS 1, Haleakala MPS 456139
2013 02 06.99082 08 42 59.85 +12 03 42.8 20.6   J43 – Oukaimeden Observatory, Marrakech MPS 456139
2013 02 07.00237 08 42 59.24 +12 03 45.4 20.5   J43 – Oukaimeden Observatory, Marrakech MPS 456139
2013 02 07.01388 08 42 58.63 +12 03 48.7 21.1   J43 – Oukaimeden Observatory, Marrakech MPS 456139
2013 02 07.02543 08 42 57.96 +12 03 51.5 20.4   J43 – Oukaimeden Observatory, Marrakech MPS 456139
2014 04 01.34722 14 26 30.66 -13 09 50.3   691 – Steward Observatory, Kitt Peak-Spacewatch MPS 509640
2014 04 01.36246 14 26 30.09 -13 09 46.6   691 – Steward Observatory, Kitt Peak-Spacewatch MPS 509640
